Regional Weather Roundup
Issued by NWS

Current Version | Previous Version | Text Only | Print | Product List | Glossary On
Versions: 1 2 3 4 5 6 7 8 9 10 11 12 13 14 15 16 17 18 19 20 21 22 23 24 25 26 27 28 29 30 31 32 33 34 35 36 37 38 39 40 41 42 43 44 45 46 47 48 49 50
000
ASUS44 KOUN 040610
RWROK

WEATHER ROUNDUP FOR OKLAHOMA
NATIONAL WEATHER SERVICE NORMAN OK
100 AM CDT TUE OCT 04 2022

NOTE: "FAIR" INDICATES FEW OR NO CLOUDS BELOW 12,000 FEET WITH NO
      SIGNIFICANT WEATHER AND/OR OBSTRUCTIONS TO VISIBILITY.

OKZ001>007-009>012-014-015-017-040700-
NORTHWEST OKLAHOMA AND THE PANHANDLE

CITY           SKY/WX    TMP DP  RH WIND       PRES   REMARKS
GAGE           CLEAR     61  33  35 S12       30.13F
6HR MIN TEMP:  59; 6HR MAX TEMP:  77;

GUYMON         PTCLDY    60  32  34 W6        30.13R
ENID/WOODRING  CLEAR     55  37  50 CALM      30.13S
$$

OKZ016-021>023-033>039-044-045-040700-
SOUTHWEST OKLAHOMA

CITY           SKY/WX    TMP DP  RH WIND       PRES   REMARKS
LAWTON/REGL    CLEAR     56  42  59 CALM      30.13F
6HR MIN TEMP:  56; 6HR MAX TEMP:  80;

LAWTON/FT SILL PTCLDY    63  42  47 CALM      30.11F
FREDERICK      CLEAR     59  36  42 CALM      30.10F
CLINTON        PTCLDY    59  38  45 SE9       30.14F
HOBART         PTCLDY    64  38  38 S10       30.14F
ALTUS AFB      PTCLDY    56  38  50 SE5       30.11S
$$

OKZ018>020-024>031-040700-
CENTRAL OKLAHOMA

CITY           SKY/WX    TMP DP  RH WIND       PRES   REMARKS
OKLAHOMA CITY  PTCLDY    61  43  51 CALM      30.14S
6HR MIN TEMP:  59; 6HR MAX TEMP:  75;

OKC/WILEY POST CLEAR     61  43  51 S5        30.14S
OKC/TINKER AFB CLEAR     61  40  46 SE7       30.11F
STILLWATER     CLEAR     54  41  61 CALM      30.14S
GUTHRIE        CLEAR     64  39  39 SE7       30.14S
$$

OKZ008-013-054>072-040700-
NORTHEAST OKLAHOMA

CITY           SKY/WX    TMP DP  RH WIND       PRES   REMARKS
TULSA          PTCLDY    61  48  62 CALM      30.13F
6HR MIN TEMP:  60; 6HR MAX TEMP:  80;

TULSA/JONES    CLEAR     55  48  77 CALM      30.13F
PONCA CITY     CLEAR     59  42  53 CALM      30.13F
BARTLESVILLE   CLEAR     49  43  80 CALM      30.16S
$$

OKZ032-040>043-046>053-073>077-040700-
SOUTH CENTRAL/SOUTHEAST OKLAHOMA

CITY           SKY/WX    TMP DP  RH WIND       PRES   REMARKS
ARDMORE/DWNTWN CLEAR     55  46  72 CALM      30.13F
MCALESTER      PTCLDY    56  44  64 CALM      30.14F
$$




USA.gov is the U.S. government's official web portal to all federal, state and local government web resources and services.